| time (UTC) | temp F | wind direction | speed MPH | gust MPH | rain 1hr in | rain 24hr in | rain mn in | humidity % | barometer mb |
| 20260906231241 | 86 | 202 | 2.0 | 3.0 | 0.00 | 0.00 | 0.00 | 28 | 1020.1 |
| 20260906230740 | 85 | 161 | 1.0 | 2.0 | 0.00 | 0.00 | 0.00 | 29 | 1020.9 |
| 20260906230235 | 86 | 149 | 0.0 | 1.0 | 0.00 | 0.00 | 0.00 | 29 | 1020.3 |
| 20260906225734 | 88 | 183 | 2.0 | 3.0 | 0.00 | 0.00 | 0.00 | 26 | 1020.6 |
| 20260906225230 | 89 | 157 | 1.0 | 1.0 | 0.00 | 0.00 | 0.00 | 26 | 1020.4 |
| 20260906224725 | 88 | 191 | 2.0 | 2.0 | 0.00 | 0.00 | 0.00 | 27 | 1020.3 |
| 20260906224221 | 87 | 187 | 1.0 | 1.0 | 0.00 | 0.00 | 0.00 | 28 | 1020.4 |
| 20260906223718 | 86 | 138 | 0.0 | 0.0 | 0.00 | 0.00 | 0.00 | 30 | 1020.3 |
| 20260906223213 | 85 | 160 | 0.0 | 1.0 | 0.00 | 0.00 | 0.00 | 30 | 1020.4 |
| 20260906222711 | 86 | 167 | 0.0 | 0.0 | 0.00 | 0.00 | 0.00 | 31 | 1020.6 |
| 20260906222210 | 85 | 161 | 1.0 | 1.0 | 0.00 | 0.00 | 0.00 | 30 | 1020.7 |
| 20260906221708 | 85 | 108 | 1.0 | 1.0 | 0.00 | 0.00 | 0.00 | 35 | 1020.7 |
| 20260906221203 | 85 | 147 | 2.0 | 2.0 | 0.00 | 0.00 | 0.00 | 29 | 1020.6 |
| 20260906220658 | 86 | 120 | 1.0 | 1.0 | 0.00 | 0.00 | 0.00 | 29 | 1020.6 |
| 20260906220153 | 87 | 165 | 0.0 | 1.0 | 0.00 | 0.00 | 0.00 | 28 | 1020.7 |
| 20260906215652 | 87 | 164 | 1.0 | 1.0 | 0.00 | 0.00 | 0.00 | 26 | 1020.7 |
| 20260906215151 | 87 | 208 | 2.0 | 3.0 | 0.00 | 0.00 | 0.00 | 26 | 1020.6 |
| 20260906214649 | 87 | 208 | 1.0 | 2.0 | 0.00 | 0.00 | 0.00 | 27 | 1020.8 |
| 20260906214144 | 87 | 122 | 0.0 | 1.0 | 0.00 | 0.00 | 0.00 | 27 | 1020.7 |
| 20260906213643 | 87 | 95 | 1.0 | 2.0 | 0.00 | 0.00 | 0.00 | 26 | 1020.7 |
| 20260906213138 | 87 | 259 | 3.0 | 3.0 | 0.00 | 0.00 | 0.00 | 27 | 1020.9 |
| 20260906212636 | 88 | 225 | 2.0 | 2.0 | 0.00 | 0.00 | 0.00 | 26 | 1021.2 |
| 20260906212132 | 89 | 237 | 0.0 | 1.0 | 0.00 | 0.00 | 0.00 | 27 | 1020.9 |
| 20260906211631 | 88 | 122 | 1.0 | 1.0 | 0.00 | 0.00 | 0.00 | 27 | 1020.8 |
| 20260906211126 | 89 | 160 | 2.0 | 2.0 | 0.00 | 0.00 | 0.00 | 25 | 1020.8 |
| 20260906210622 | 90 | 190 | 2.0 | 2.0 | 0.00 | 0.00 | 0.00 | 24 | 1020.9 |
| 20260906210117 | 89 | 158 | 1.0 | 1.0 | 0.00 | 0.00 | 0.00 | 26 | 1021.2 |
| 20260906205612 | 89 | 284 | 2.0 | 2.0 | 0.00 | 0.00 | 0.00 | 30 | 1021.0 |
| 20260906205109 | 87 | 237 | 1.0 | 1.0 | 0.00 | 0.00 | 0.00 | 27 | 1021.3 |
| 20260906204607 | 84 | 187 | 0.0 | 0.0 | 0.00 | 0.00 | 0.00 | 32 | 1021.3 |
| 20260906204103 | 83 | 113 | 1.0 | 1.0 | 0.00 | 0.00 | 0.00 | 31 | 1021.3 |
| 20260906203602 | 83 | 142 | 1.0 | 2.0 | 0.00 | 0.00 | 0.00 | 30 | 1021.4 |
| 20260906203057 | 83 | 85 | 0.0 | 0.0 | 0.00 | 0.00 | 0.00 | 33 | 1021.3 |
| 20260906202553 | 83 | 229 | 1.0 | 1.0 | 0.00 | 0.00 | 0.00 | 32 | 1021.7 |
| 20260906202048 | 83 | 250 | 2.0 | 2.0 | 0.00 | 0.00 | 0.00 | 31 | 1021.4 |
| 20260906201547 | 84 | 150 | 0.0 | 1.0 | 0.00 | 0.00 | 0.00 | 31 | 1021.5 |
| 20260906201042 | 85 | 250 | 3.0 | 3.0 | 0.00 | 0.00 | 0.00 | 28 | 1021.4 |
| 20260906200538 | 84 | 158 | 0.0 | 0.0 | 0.00 | 0.00 | 0.00 | 31 | 1021.8 |
| 20260906200034 | 84 | 190 | 3.0 | 5.0 | 0.00 | 0.00 | 0.00 | 28 | 1021.5 |
| 20260906195529 | 84 | 87 | 2.0 | 2.0 | 0.00 | 0.00 | 0.00 | 29 | 1021.9 |
| 20260906195025 | 84 | 46 | 1.0 | 1.0 | 0.00 | 0.00 | 0.00 | 30 | 1021.8 |
| 20260906194521 | 83 | 94 | 1.0 | 1.0 | 0.00 | 0.00 | 0.00 | 32 | 1021.5 |
| 20260906194016 | 83 | 176 | 0.0 | 1.0 | 0.00 | 0.00 | 0.00 | 30 | 1021.7 |
| 20260906193516 | 84 | 185 | 1.0 | 1.0 | 0.00 | 0.00 | 0.00 | 34 | 1022.0 |
| 20260906193012 | 84 | 185 | 1.0 | 2.0 | 0.00 | 0.00 | 0.00 | 28 | 1021.9 |
| 20260906192507 | 86 | 163 | 0.0 | 1.0 | 0.00 | 0.00 | 0.00 | 28 | 1022.1 |
| 20260906192006 | 86 | 201 | 0.0 | 1.0 | 0.00 | 0.00 | 0.00 | 28 | 1022.1 |
| 20260906191501 | 86 | 141 | 1.0 | 1.0 | 0.00 | 0.00 | 0.00 | 27 | 1022.0 |
| 20260906191000 | 86 | 165 | 1.0 | 1.0 | 0.00 | 0.00 | 0.00 | 29 | 1022.4 |
| 20260906190459 | 87 | 154 | 1.0 | 1.0 | 0.00 | 0.00 | 0.00 | 26 | 1022.0 |
| 20260906185954 | 85 | 245 | 1.0 | 1.0 | 0.00 | 0.00 | 0.00 | 26 | 1022.0 |
| 20260906185453 | 84 | 168 | 1.0 | 1.0 | 0.00 | 0.00 | 0.00 | 28 | 1022.1 |
| 20260906184952 | 83 | 92 | 0.0 | 1.0 | 0.00 | 0.00 | 0.00 | 27 | 1022.1 |
| 20260906184448 | 84 | 99 | 2.0 | 2.0 | 0.00 | 0.00 | 0.00 | 27 | 1022.5 |
| 20260906183943 | 84 | 108 | 2.0 | 2.0 | 0.00 | 0.00 | 0.00 | 32 | 1022.4 |
| 20260906183439 | 84 | 97 | 2.0 | 2.0 | 0.00 | 0.00 | 0.00 | 28 | 1022.5 |
| 20260906182934 | 84 | 132 | 1.0 | 1.0 | 0.00 | 0.00 | 0.00 | 26 | 1022.5 |
| 20260906182430 | 82 | 98 | 4.0 | 6.0 | 0.00 | 0.00 | 0.00 | 30 | 1022.6 |
| 20260906181926 | 82 | 81 | 2.0 | 2.0 | 0.00 | 0.00 | 0.00 | 27 | 1022.9 |
| 20260906181421 | 83 | 117 | 2.0 | 2.0 | 0.00 | 0.00 | 0.00 | 30 | 1022.9 |
| 20260906180917 | 82 | 162 | 0.0 | 0.0 | 0.00 | 0.00 | 0.00 | 30 | 1023.0 |
| 20260906180412 | 81 | 323 | 2.0 | 2.0 | 0.00 | 0.00 | 0.00 | 28 | 1023.1 |
| 20260906175909 | 81 | 186 | 1.0 | 1.0 | 0.00 | 0.00 | 0.00 | 34 | 1023.2 |
| 20260906175404 | 81 | 93 | 1.0 | 2.0 | 0.00 | 0.00 | 0.00 | 30 | 1023.4 |
| 20260906174903 | 80 | 128 | 1.0 | 1.0 | 0.00 | 0.00 | 0.00 | 32 | 1023.1 |
| 20260906174403 | 80 | 92 | 1.0 | 1.0 | 0.00 | 0.00 | 0.00 | 34 | 1023.7 |
| 20260906173857 | 80 | 186 | 0.0 | 0.0 | 0.00 | 0.00 | 0.00 | 31 | 1023.5 |
| 20260906173353 | 79 | 149 | 0.0 | 0.0 | 0.00 | 0.00 | 0.00 | 32 | 1023.8 |
| 20260906172852 | 78 | 137 | 0.0 | 1.0 | 0.00 | 0.00 | 0.00 | 35 | 1023.8 |
| 20260906172348 | 78 | 106 | 0.0 | 1.0 | 0.00 | 0.00 | 0.00 | 36 | 1024.0 |
| 20260906171843 | 77 | 81 | 1.0 | 1.0 | 0.00 | 0.00 | 0.00 | 35 | 1023.8 |
| 20260906171338 | 76 | 100 | 1.0 | 1.0 | 0.00 | 0.00 | 0.00 | 39 | 1024.2 |
| 20260906170833 | 76 | 95 | 0.0 | 1.0 | 0.00 | 0.00 | 0.00 | 38 | 1024.1 |
| 20260906170329 | 75 | 88 | 1.0 | 1.0 | 0.00 | 0.00 | 0.00 | 38 | 1024.3 |
| 20260906165826 | 75 | 153 | 0.0 | 0.0 | 0.00 | 0.00 | 0.00 | 38 | 1024.2 |
| 20260906165324 | 74 | 101 | 1.0 | 1.0 | 0.00 | 0.00 | 0.00 | 37 | 1024.1 |
| 20260906164819 | 73 | 160 | 0.0 | 0.0 | 0.00 | 0.00 | 0.00 | 37 | 1024.0 |
| 20260906164314 | 73 | 147 | 0.0 | 0.0 | 0.00 | 0.00 | 0.00 | 40 | 1024.3 |
| 20260906163810 | 73 | 147 | 0.0 | 0.0 | 0.00 | 0.00 | 0.00 | 38 | 1024.2 |
| 20260906163306 | 73 | 103 | 0.0 | 2.0 | 0.00 | 0.00 | 0.00 | 39 | 1024.3 |
| 20260906162803 | 72 | 114 | 0.0 | 0.0 | 0.00 | 0.00 | 0.00 | 40 | 1024.6 |
| 20260906162305 | 71 | 44 | 0.0 | 1.0 | 0.00 | 0.00 | 0.00 | 39 | 1024.5 |
| 20260906161757 | 70 | 46 | 1.0 | 1.0 | 0.00 | 0.00 | 0.00 | 43 | 1024.7 |
| 20260906161256 | 69 | 114 | 0.0 | 0.0 | 0.00 | 0.00 | 0.00 | 43 | 1024.5 |
| 20260906160755 | 69 | 97 | 1.0 | 1.0 | 0.00 | 0.00 | 0.00 | 42 | 1024.6 |
| 20260906160250 | 68 | 131 | 0.0 | 2.0 | 0.00 | 0.00 | 0.00 | 44 | 1024.8 |
| 20260906155748 | 68 | 91 | 1.0 | 2.0 | 0.00 | 0.00 | 0.00 | 44 | 1024.9 |
| 20260906155242 | 67 | 37 | 1.0 | 1.0 | 0.00 | 0.00 | 0.00 | 46 | 1025.1 |
| 20260906154738 | 67 | 144 | 0.0 | 1.0 | 0.00 | 0.00 | 0.00 | 48 | 1024.8 |
| 20260906154233 | 65 | 112 | 0.0 | 0.0 | 0.00 | 0.00 | 0.00 | 53 | 1024.7 |
| 20260906153731 | 64 | 72 | 0.0 | 0.0 | 0.00 | 0.00 | 0.00 | 52 | 1024.9 |
| 20260906153225 | 64 | 71 | 1.0 | 2.0 | 0.00 | 0.00 | 0.00 | 57 | 1025.2 |
| 20260906152721 | 62 | 94 | 1.0 | 2.0 | 0.00 | 0.00 | 0.00 | 56 | 1024.8 |
| 20260906152215 | 62 | 149 | 0.0 | 0.0 | 0.00 | 0.00 | 0.00 | 63 | 1024.7 |
| 20260906151709 | 62 | 144 | 0.0 | 0.0 | 0.00 | 0.00 | 0.00 | 65 | 1025.2 |
| 20260906151206 | 62 | 152 | 0.0 | 0.0 | 0.00 | 0.00 | 0.00 | 58 | 1025.1 |
| 20260906150701 | 62 | 164 | 0.0 | 0.0 | 0.00 | 0.00 | 0.00 | 59 | 1025.4 |
| 20260906150156 | 62 | 87 | 1.0 | 1.0 | 0.00 | 0.00 | 0.00 | 57 | 1025.3 |
| 20260906145654 | 62 | 89 | 1.0 | 1.0 | 0.00 | 0.00 | 0.00 | 61 | 1025.6 |
| 20260906145149 | 61 | 170 | 0.0 | 0.0 | 0.00 | 0.00 | 0.00 | 61 | 1025.4 |
| 20260906144648 | 60 | 114 | 0.0 | 0.0 | 0.00 | 0.00 | 0.00 | 64 | 1025.6 |
| 20260906144143 | 60 | 129 | 2.0 | 2.0 | 0.00 | 0.00 | 0.00 | 66 | 1025.6 |
| 20260906143643 | 59 | 159 | 1.0 | 2.0 | 0.00 | 0.00 | 0.00 | 67 | 1025.6 |
| 20260906143141 | 58 | 154 | 0.0 | 0.0 | 0.00 | 0.00 | 0.00 | 61 | 1025.7 |
| 20260906142640 | 57 | 147 | 0.0 | 0.0 | 0.00 | 0.00 | 0.00 | 70 | 1025.7 |
| 20260906142135 | 56 | 93 | 0.0 | 0.0 | 0.00 | 0.00 | 0.00 | 74 | 1026.0 |
| 20260906141633 | 55 | 187 | 0.0 | 0.0 | 0.00 | 0.00 | 0.00 | 74 | 1026.0 |
| 20260906141129 | 53 | 162 | 0.0 | 0.0 | 0.00 | 0.00 | 0.00 | 69 | 1025.8 |
| 20260906140628 | 52 | 177 | 0.0 | 0.0 | 0.00 | 0.00 | 0.00 | 74 | 1026.0 |
| 20260906140123 | 51 | 196 | 0.0 | 0.0 | 0.00 | 0.00 | 0.00 | 73 | 1026.0 |
| 20260906135621 | 51 | 123 | 0.0 | 0.0 | 0.00 | 0.00 | 0.00 | 79 | 1026.0 |
| 20260906135116 | 49 | 91 | 1.0 | 2.0 | 0.00 | 0.00 | 0.00 | 81 | 1026.0 |
| 20260906134612 | 48 | 140 | 0.0 | 0.0 | 0.00 | 0.00 | 0.00 | 89 | 1025.6 |
| 20260906134107 | 47 | 101 | 1.0 | 1.0 | 0.00 | 0.00 | 0.00 | 89 | 1025.8 |
| 20260906133602 | 46 | 173 | 0.0 | 0.0 | 0.00 | 0.00 | 0.00 | 88 | 1025.9 |
| 20260906133057 | 45 | 157 | 0.0 | 0.0 | 0.00 | 0.00 | 0.00 | 90 | 1025.6 |
| 20260906132552 | 45 | 168 | 0.0 | 0.0 | 0.00 | 0.00 | 0.00 | 89 | 1025.8 |
| 20260906132048 | 45 | 98 | 1.0 | 1.0 | 0.00 | 0.00 | 0.00 | 90 | 1025.7 |
| 20260906131543 | 45 | 171 | 0.0 | 0.0 | 0.00 | 0.00 | 0.00 | 91 | 1025.6 |
| 20260906131038 | 44 | 167 | 0.0 | 0.0 | 0.00 | 0.00 | 0.00 | 92 | 1025.7 |
| 20260906130538 | 44 | 171 | 0.0 | 0.0 | 0.00 | 0.00 | 0.00 | 92 | 1025.6 |
| 20260906130033 | 44 | 171 | 0.0 | 0.0 | 0.00 | 0.00 | 0.00 | 92 | 1025.4 |
| 20260906125530 | 45 | 175 | 0.0 | 0.0 | 0.00 | 0.00 | 0.00 | 91 | 1025.2 |
| 20260906125025 | 45 | 159 | 0.0 | 0.0 | 0.00 | 0.00 | 0.00 | 91 | 1025.2 |
| 20260906124520 | 46 | 161 | 0.0 | 0.0 | 0.00 | 0.00 | 0.00 | 90 | 1025.2 |
| 20260906124015 | 46 | 138 | 0.0 | 0.0 | 0.00 | 0.00 | 0.00 | 91 | 1024.9 |
| 20260906123514 | 45 | 160 | 0.0 | 0.0 | 0.00 | 0.00 | 0.00 | 93 | 1024.9 |
| 20260906123010 | 45 | 188 | 0.0 | 0.0 | 0.00 | 0.00 | 0.00 | 93 | 1025.3 |
| 20260906122503 | 45 | 175 | 0.0 | 0.0 | 0.00 | 0.00 | 0.00 | 93 | 1025.2 |
| 20260906122000 | 45 | 177 | 0.0 | 0.0 | 0.00 | 0.00 | 0.00 | 93 | 1025.3 |
| 20260906121455 | 45 | 174 | 0.0 | 0.0 | 0.00 | 0.00 | 0.00 | 92 | 1025.1 |
| 20260906120952 | 45 | 161 | 0.0 | 0.0 | 0.00 | 0.00 | 0.00 | 92 | 1025.1 |
| 20260906120447 | 45 | 160 | 0.0 | 0.0 | 0.00 | 0.00 | 0.00 | 91 | 1025.3 |
| 20260906115944 | 45 | 174 | 0.0 | 0.0 | 0.00 | 0.00 | 0.00 | 91 | 1025.2 |
| 20260906115439 | 45 | 174 | 0.0 | 0.0 | 0.00 | 0.00 | 0.00 | 90 | 1025.3 |
| 20260906114938 | 46 | 159 | 0.0 | 0.0 | 0.00 | 0.00 | 0.00 | 90 | 1025.1 |
| 20260906114433 | 46 | 148 | 0.0 | 0.0 | 0.00 | 0.00 | 0.00 | 90 | 1024.9 |
| 20260906113929 | 46 | 133 | 0.0 | 0.0 | 0.00 | 0.00 | 0.00 | 91 | 1025.1 |
| 20260906113427 | 45 | 170 | 0.0 | 0.0 | 0.00 | 0.00 | 0.00 | 89 | 1024.9 |
| 20260906112923 | 46 | 176 | 0.0 | 0.0 | 0.00 | 0.00 | 0.00 | 89 | 1024.9 |
| 20260906112418 | 46 | 181 | 0.0 | 0.0 | 0.00 | 0.00 | 0.00 | 90 | 1024.6 |
| 20260906111914 | 45 | 175 | 0.0 | 0.0 | 0.00 | 0.00 | 0.00 | 91 | 1024.9 |
| 20260906111413 | 45 | 153 | 0.0 | 0.0 | 0.00 | 0.00 | 0.00 | 91 | 1024.8 |
| 20260906110908 | 46 | 164 | 0.0 | 0.0 | 0.00 | 0.00 | 0.00 | 91 | 1024.7 |
| 20260906110404 | 46 | 158 | 0.0 | 0.0 | 0.00 | 0.00 | 0.00 | 90 | 1024.7 |
| 20260906105903 | 46 | 175 | 0.0 | 0.0 | 0.00 | 0.00 | 0.00 | 89 | 1025.1 |
| 20260906105359 | 46 | 134 | 0.0 | 1.0 | 0.00 | 0.00 | 0.00 | 91 | 1024.6 |
| 20260906104854 | 46 | 159 | 0.0 | 0.0 | 0.00 | 0.00 | 0.00 | 92 | 1024.7 |
| 20260906104353 | 46 | 169 | 0.0 | 0.0 | 0.00 | 0.00 | 0.00 | 91 | 1024.7 |
| 20260906103852 | 46 | 168 | 0.0 | 0.0 | 0.00 | 0.00 | 0.00 | 91 | 1024.8 |
| 20260906103350 | 47 | 175 | 0.0 | 0.0 | 0.00 | 0.00 | 0.00 | 90 | 1024.7 |
| 20260906102846 | 47 | 160 | 0.0 | 0.0 | 0.00 | 0.00 | 0.00 | 90 | 1024.9 |
| 20260906102345 | 47 | 186 | 0.0 | 0.0 | 0.00 | 0.00 | 0.00 | 90 | 1024.6 |
| 20260906101840 | 47 | 179 | 0.0 | 0.0 | 0.00 | 0.00 | 0.00 | 91 | 1024.6 |
| 20260906101335 | 47 | 154 | 0.0 | 0.0 | 0.00 | 0.00 | 0.00 | 91 | 1024.8 |
| 20260906100831 | 47 | 170 | 0.0 | 0.0 | 0.00 | 0.00 | 0.00 | 90 | 1024.6 |
| 20260906100330 | 48 | 165 | 0.0 | 0.0 | 0.00 | 0.00 | 0.00 | 90 | 1024.6 |
| 20260906095825 | 47 | 116 | 0.0 | 1.0 | 0.00 | 0.00 | 0.00 | 90 | 1024.3 |
| 20260906095321 | 47 | 176 | 0.0 | 0.0 | 0.00 | 0.00 | 0.00 | 89 | 1024.5 |
| 20260906094820 | 47 | 172 | 0.0 | 0.0 | 0.00 | 0.00 | 0.00 | 90 | 1024.5 |
| 20260906094315 | 47 | 178 | 0.0 | 0.0 | 0.00 | 0.00 | 0.00 | 90 | 1024.7 |
| 20260906093812 | 48 | 156 | 0.0 | 0.0 | 0.00 | 0.00 | 0.00 | 90 | 1024.7 |
| 20260906093307 | 48 | 128 | 0.0 | 0.0 | 0.00 | 0.00 | 0.00 | 91 | 1024.5 |
| 20260906092802 | 48 | 157 | 0.0 | 0.0 | 0.00 | 0.00 | 0.00 | 89 | 1024.7 |
| 20260906092256 | 49 | 158 | 0.0 | 0.0 | 0.00 | 0.00 | 0.00 | 88 | 1024.3 |
| 20260906091752 | 49 | 175 | 0.0 | 0.0 | 0.00 | 0.00 | 0.00 | 88 | 1024.2 |
| 20260906091248 | 48 | 114 | 0.0 | 0.0 | 0.00 | 0.00 | 0.00 | 87 | 1024.7 |
| 20260906090744 | 48 | 179 | 0.0 | 0.0 | 0.00 | 0.00 | 0.00 | 85 | 1024.3 |
| 20260906090243 | 48 | 168 | 0.0 | 0.0 | 0.00 | 0.00 | 0.00 | 86 | 1024.6 |
| 20260906085742 | 49 | 168 | 0.0 | 0.0 | 0.00 | 0.00 | 0.00 | 87 | 1024.5 |
| 20260906085242 | 49 | 146 | 0.0 | 0.0 | 0.00 | 0.00 | 0.00 | 86 | 1024.5 |
| 20260906084736 | 50 | 127 | 0.0 | 0.0 | 0.00 | 0.00 | 0.00 | 85 | 1024.7 |
| 20260906084231 | 49 | 163 | 0.0 | 0.0 | 0.00 | 0.00 | 0.00 | 87 | 1024.6 |
| 20260906083726 | 49 | 148 | 0.0 | 0.0 | 0.00 | 0.00 | 0.00 | 85 | 1024.7 |
| 20260906083221 | 49 | 161 | 0.0 | 0.0 | 0.00 | 0.00 | 0.00 | 83 | 1024.3 |
| 20260906082716 | 49 | 175 | 0.0 | 0.0 | 0.00 | 0.00 | 0.00 | 84 | 1024.5 |
| 20260906082211 | 49 | 175 | 0.0 | 0.0 | 0.00 | 0.00 | 0.00 | 84 | 1024.6 |
| 20260906081707 | 49 | 175 | 0.0 | 0.0 | 0.00 | 0.00 | 0.00 | 84 | 1024.7 |
| 20260906081202 | 50 | 172 | 0.0 | 0.0 | 0.00 | 0.00 | 0.00 | 84 | 1024.6 |
| 20260906080659 | 51 | 143 | 0.0 | 0.0 | 0.00 | 0.00 | 0.00 | 86 | 1024.6 |
| 20260906080155 | 50 | 159 | 0.0 | 0.0 | 0.00 | 0.00 | 0.00 | 86 | 1024.8 |
| 20260906075654 | 50 | 156 | 0.0 | 0.0 | 0.00 | 0.00 | 0.00 | 85 | 1024.8 |
| 20260906075149 | 50 | 177 | 0.0 | 0.0 | 0.00 | 0.00 | 0.00 | 84 | 1024.3 |
| 20260906074644 | 50 | 184 | 0.0 | 0.0 | 0.00 | 0.00 | 0.00 | 84 | 1024.6 |
| 20260906074143 | 51 | 188 | 0.0 | 0.0 | 0.00 | 0.00 | 0.00 | 84 | 1024.9 |
| 20260906073638 | 51 | 157 | 0.0 | 0.0 | 0.00 | 0.00 | 0.00 | 83 | 1024.6 |
| 20260906073134 | 51 | 131 | 0.0 | 0.0 | 0.00 | 0.00 | 0.00 | 85 | 1024.8 |
| 20260906072628 | 51 | 126 | 0.0 | 1.0 | 0.00 | 0.00 | 0.00 | 84 | 1024.6 |
| 20260906072124 | 51 | 174 | 0.0 | 0.0 | 0.00 | 0.00 | 0.00 | 84 | 1024.7 |
| 20260906071621 | 52 | 157 | 0.0 | 0.0 | 0.00 | 0.00 | 0.00 | 84 | 1024.7 |
| 20260906071115 | 52 | 151 | 0.0 | 0.0 | 0.00 | 0.00 | 0.00 | 83 | 1024.8 |
| 20260906070612 | 52 | 157 | 0.0 | 0.0 | 0.00 | 0.00 | 0.00 | 83 | 1024.8 |
| 20260906070107 | 52 | 164 | 0.0 | 0.0 | 0.00 | 0.00 | 0.00 | 83 | 1024.9 |
| 20260906065606 | 52 | 163 | 0.0 | 0.0 | 0.00 | 0.00 | 0.00 | 81 | 1024.8 |
| 20260906065102 | 53 | 177 | 0.0 | 0.0 | 0.00 | 0.00 | 0.00 | 80 | 1024.3 |
| 20260906064558 | 52 | 181 | 0.0 | 0.0 | 0.00 | 0.00 | 0.00 | 78 | 1024.6 |
| 20260906064052 | 52 | 159 | 0.0 | 0.0 | 0.00 | 0.00 | 0.00 | 80 | 1024.6 |
| 20260906063547 | 53 | 162 | 0.0 | 0.0 | 0.00 | 0.00 | 0.00 | 80 | 1024.6 |
| 20260906063043 | 53 | 176 | 0.0 | 0.0 | 0.00 | 0.00 | 0.00 | 80 | 1024.5 |
| 20260906062538 | 53 | 145 | 0.0 | 0.0 | 0.00 | 0.00 | 0.00 | 79 | 1024.7 |
| 20260906062032 | 53 | 180 | 0.0 | 0.0 | 0.00 | 0.00 | 0.00 | 79 | 1024.3 |
| 20260906061529 | 53 | 176 | 0.0 | 0.0 | 0.00 | 0.00 | 0.00 | 79 | 1024.3 |
| 20260906061028 | 54 | 165 | 0.0 | 0.0 | 0.00 | 0.00 | 0.00 | 77 | 1024.6 |
| 20260906060525 | 54 | 169 | 0.0 | 0.0 | 0.00 | 0.00 | 0.00 | 76 | 1024.5 |
| 20260906060022 | 55 | 148 | 0.0 | 0.0 | 0.00 | 0.00 | 0.00 | 78 | 1024.3 |
| 20260906055517 | 55 | 111 | 0.0 | 0.0 | 0.00 | 0.00 | 0.00 | 79 | 1024.3 |
| 20260906055013 | 55 | 163 | 0.0 | 0.0 | 0.00 | 0.00 | 0.00 | 71 | 1024.2 |
| 20260906054507 | 55 | 174 | 0.0 | 0.0 | 0.00 | 0.00 | 0.00 | 73 | 1024.2 |
| 20260906054002 | 55 | 175 | 0.0 | 0.0 | 0.00 | 0.00 | 0.00 | 73 | 1024.6 |
| 20260906053459 | 55 | 172 | 0.0 | 0.0 | 0.00 | 0.00 | 0.00 | 74 | 1024.6 |
| 20260906052954 | 55 | 151 | 0.0 | 0.0 | 0.00 | 0.00 | 0.00 | 76 | 1024.5 |
| 20260906052450 | 55 | 146 | 0.0 | 0.0 | 0.00 | 0.00 | 0.00 | 75 | 1024.5 |
| 20260906051947 | 56 | 129 | 0.0 | 0.0 | 0.00 | 0.00 | 0.00 | 75 | 1024.2 |
| 20260906051442 | 56 | 125 | 0.0 | 0.0 | 0.00 | 0.00 | 0.00 | 75 | 1024.5 |
| 20260906050937 | 56 | 180 | 0.0 | 0.0 | 0.00 | 0.00 | 0.00 | 69 | 1024.3 |
| 20260906050437 | 56 | 164 | 0.0 | 0.0 | 0.00 | 0.00 | 0.00 | 73 | 1024.2 |
| 20260906045936 | 57 | 169 | 0.0 | 0.0 | 0.00 | 0.00 | 0.00 | 73 | 1024.1 |
| 20260906045435 | 58 | 108 | 1.0 | 1.0 | 0.00 | 0.00 | 0.00 | 69 | 1024.5 |
| 20260906044931 | 58 | 169 | 0.0 | 0.0 | 0.00 | 0.00 | 0.00 | 71 | 1024.3 |
| 20260906044426 | 58 | 157 | 0.0 | 0.0 | 0.00 | 0.00 | 0.00 | 67 | 1024.1 |
| 20260906043921 | 59 | 157 | 0.0 | 0.0 | 0.00 | 0.00 | 0.00 | 65 | 1024.1 |
| 20260906043417 | 59 | 149 | 0.0 | 0.0 | 0.00 | 0.00 | 0.00 | 71 | 1024.1 |
| 20260906042913 | 59 | 126 | 0.0 | 0.0 | 0.00 | 0.00 | 0.00 | 66 | 1024.2 |
| 20260906042412 | 59 | 166 | 0.0 | 0.0 | 0.00 | 0.00 | 0.00 | 65 | 1023.7 |
| 20260906041907 | 60 | 161 | 0.0 | 0.0 | 0.00 | 0.00 | 0.00 | 67 | 1024.0 |
| 20260906041402 | 60 | 142 | 0.0 | 0.0 | 0.00 | 0.00 | 0.00 | 64 | 1023.8 |
| 20260906040857 | 60 | 151 | 0.0 | 0.0 | 0.00 | 0.00 | 0.00 | 61 | 1023.8 |
| 20260906040352 | 61 | 123 | 0.0 | 0.0 | 0.00 | 0.00 | 0.00 | 63 | 1023.8 |
| 20260906035848 | 60 | 175 | 0.0 | 0.0 | 0.00 | 0.00 | 0.00 | 58 | 1023.6 |
| 20260906035343 | 60 | 164 | 0.0 | 0.0 | 0.00 | 0.00 | 0.00 | 59 | 1023.7 |
| 20260906034838 | 60 | 174 | 0.0 | 0.0 | 0.00 | 0.00 | 0.00 | 61 | 1023.6 |
| 20260906034333 | 61 | 186 | 0.0 | 0.0 | 0.00 | 0.00 | 0.00 | 62 | 1023.8 |
| 20260906033829 | 61 | 169 | 0.0 | 0.0 | 0.00 | 0.00 | 0.00 | 62 | 1023.6 |
| 20260906033328 | 61 | 142 | 0.0 | 0.0 | 0.00 | 0.00 | 0.00 | 61 | 1023.4 |
| 20260906032824 | 62 | 170 | 0.0 | 0.0 | 0.00 | 0.00 | 0.00 | 60 | 1023.4 |
| 20260906032320 | 62 | 161 | 0.0 | 0.0 | 0.00 | 0.00 | 0.00 | 58 | 1023.1 |
| 20260906031815 | 64 | 100 | 0.0 | 1.0 | 0.00 | 0.00 | 0.00 | 56 | 1023.4 |
| 20260906031311 | 64 | 157 | 0.0 | 0.0 | 0.00 | 0.00 | 0.00 | 55 | 1023.1 |
| 20260906030810 | 64 | 192 | 0.0 | 0.0 | 0.00 | 0.00 | 0.00 | 54 | 1023.0 |
| 20260906030305 | 63 | 193 | 0.0 | 0.0 | 0.00 | 0.00 | 0.00 | 57 | 1022.9 |
| 20260906025805 | 63 | 145 | 0.0 | 0.0 | 0.00 | 0.00 | 0.00 | 59 | 1022.8 |
| 20260906025259 | 63 | 173 | 0.0 | 0.0 | 0.00 | 0.00 | 0.00 | 60 | 1022.5 |
| 20260906024758 | 64 | 114 | 1.0 | 1.0 | 0.00 | 0.00 | 0.00 | 63 | 1022.6 |
| 20260906024252 | 64 | 170 | 0.0 | 0.0 | 0.00 | 0.00 | 0.00 | 60 | 1022.3 |
| 20260906023747 | 65 | 158 | 0.0 | 0.0 | 0.00 | 0.00 | 0.00 | 55 | 1022.3 |
| 20260906023243 | 66 | 145 | 0.0 | 0.0 | 0.00 | 0.00 | 0.00 | 53 | 1022.0 |
| 20260906022738 | 67 | 151 | 0.0 | 1.0 | 0.00 | 0.00 | 0.00 | 51 | 1021.9 |
| 20260906022233 | 68 | 158 | 0.0 | 0.0 | 0.00 | 0.00 | 0.00 | 50 | 1021.9 |
| 20260906021729 | 68 | 184 | 0.0 | 0.0 | 0.00 | 0.00 | 0.00 | 47 | 1021.8 |
| 20260906021228 | 69 | 173 | 0.0 | 0.0 | 0.00 | 0.00 | 0.00 | 45 | 1021.8 |
| 20260906020723 | 70 | 189 | 0.0 | 0.0 | 0.00 | 0.00 | 0.00 | 44 | 1021.7 |
| 20260906020217 | 70 | 190 | 0.0 | 0.0 | 0.00 | 0.00 | 0.00 | 41 | 1021.8 |
| 20260906015712 | 71 | 184 | 0.0 | 0.0 | 0.00 | 0.00 | 0.00 | 40 | 1021.5 |
| 20260906015210 | 71 | 188 | 0.0 | 0.0 | 0.00 | 0.00 | 0.00 | 41 | 1021.7 |
| 20260906014705 | 71 | 214 | 0.0 | 1.0 | 0.00 | 0.00 | 0.00 | 39 | 1021.8 |
| 20260906014201 | 72 | 184 | 0.0 | 0.0 | 0.00 | 0.00 | 0.00 | 40 | 1021.5 |
| 20260906013657 | 72 | 192 | 0.0 | 0.0 | 0.00 | 0.00 | 0.00 | 38 | 1021.7 |
| 20260906013152 | 73 | 214 | 0.0 | 1.0 | 0.00 | 0.00 | 0.00 | 39 | 1021.5 |
| 20260906012652 | 73 | 190 | 0.0 | 0.0 | 0.00 | 0.00 | 0.00 | 38 | 1021.4 |
| 20260906012152 | 73 | 220 | 0.0 | 1.0 | 0.00 | 0.00 | 0.00 | 38 | 1021.7 |
| 20260906011648 | 73 | 191 | 0.0 | 0.0 | 0.00 | 0.00 | 0.00 | 39 | 1021.5 |
| 20260906011142 | 74 | 212 | 0.0 | 1.0 | 0.00 | 0.00 | 0.00 | 39 | 1021.3 |
| 20260906010638 | 74 | 205 | 0.0 | 0.0 | 0.00 | 0.00 | 0.00 | 40 | 1021.4 |
| 20260906010134 | 75 | 185 | 0.0 | 0.0 | 0.00 | 0.00 | 0.00 | 42 | 1021.3 |
| 20260906005633 | 75 | 190 | 0.0 | 0.0 | 0.00 | 0.00 | 0.00 | 38 | 1021.5 |
| 20260906005133 | 77 | 180 | 0.0 | 0.0 | 0.00 | 0.00 | 0.00 | 38 | 1021.4 |
| 20260906004632 | 78 | 235 | 1.0 | 1.0 | 0.00 | 0.00 | 0.00 | 36 | 1021.4 |
| 20260906004127 | 79 | 186 | 0.0 | 0.0 | 0.00 | 0.00 | 0.00 | 36 | 1021.7 |
| 20260906003622 | 79 | 198 | 1.0 | 1.0 | 0.00 | 0.00 | 0.00 | 33 | 1021.7 |
| 20260906003118 | 79 | 178 | 1.0 | 1.0 | 0.00 | 0.00 | 0.00 | 33 | 1021.5 |
| 20260906002613 | 80 | 249 | 2.0 | 2.0 | 0.00 | 0.00 | 0.00 | 32 | 1021.8 |
| 20260906002107 | 82 | 185 | 0.0 | 1.0 | 0.00 | 0.00 | 0.00 | 34 | 1021.5 |
| 20260906001602 | 83 | 224 | 1.0 | 1.0 | 0.00 | 0.00 | 0.00 | 30 | 1021.5 |
| 20260906001057 | 85 | 214 | 1.0 | 1.0 | 0.00 | 0.00 | 0.00 | 28 | 1021.5 |
| 20260906000553 | 85 | 241 | 1.0 | 1.0 | 0.00 | 0.00 | 0.00 | 28 | 1021.3 |
| 20260906000048 | 85 | 179 | 1.0 | 1.0 | 0.00 | 0.00 | 0.00 | 28 | 1021.2 |
| 20260905235547 | 85 | 199 | 1.0 | 1.0 | 0.00 | 0.00 | 0.00 | 29 | 1021.2 |
| 20260905235042 | 84 | 170 | 2.0 | 2.0 | 0.00 | 0.00 | 0.00 | 29 | 1021.3 |
| 20260905234538 | 83 | 148 | 1.0 | 1.0 | 0.00 | 0.00 | 0.00 | 31 | 1021.2 |
| 20260905234033 | 83 | 149 | 0.0 | 0.0 | 0.00 | 0.00 | 0.00 | 32 | 1021.3 |
| 20260905233533 | 84 | 145 | 0.0 | 1.0 | 0.00 | 0.00 | 0.00 | 28 | 1021.3 |
| 20260905233033 | 86 | 176 | 3.0 | 5.0 | 0.00 | 0.00 | 0.00 | 27 | 1021.2 |
| 20260905232528 | 88 | 285 | 2.0 | 3.0 | 0.00 | 0.00 | 0.00 | 28 | 1021.2 |
| 20260905232024 | 89 | 203 | 1.0 | 2.0 | 0.00 | 0.00 | 0.00 | 25 | 1021.4 |
| 20260905231519 | 88 | 213 | 3.0 | 5.0 | 0.00 | 0.00 | 0.00 | 25 | 1021.3 |